• In Uzbekistan
  • List of Countries
  • For 7 days
  • Water Temperature
  • Weather Map
  • Weather Widgets
  • user-avatar
    Login

    Hourly Weather Madinat 'Isa

    Today, 21 January, Tuesday

    Time Temperature Precipitation Wind Pressure Humidity
    00:00 +20°C° 0 mm 5 mps 763 mmHg 66%
    01:00 +20°C° 0 mm 5 mps 763 mmHg 66%
    02:00 +20°C° 0 mm 5 mps 763 mmHg 65%
    03:00 +19°C° 0 mm 5 mps 763 mmHg 66%
    04:00 +19°C° 0 mm 5 mps 763 mmHg 66%
    05:00 +19°C° 0 mm 5 mps 763 mmHg 65%
    06:00 +19°C° 0 mm 5 mps 763 mmHg 65%
    07:00 +20°C° 0 mm 5 mps 763 mmHg 64%
    08:00 +20°C° 0 mm 5 mps 763 mmHg 63%
    09:00 +20°C° 0 mm 4 mps 763 mmHg 62%
    10:00 +20°C° 0 mm 4 mps 763 mmHg 61%
    11:00 +20°C° 0 mm 4 mps 763 mmHg 60%
    12:00 +20°C° 0 mm 3 mps 762 mmHg 59%
    13:00 +20°C° 0 mm 3 mps 762 mmHg 58%
    14:00 +20°C° 0 mm 3 mps 761 mmHg 58%
    15:00 +20°C° 0 mm 3 mps 761 mmHg 57%
    16:00 +20°C° 0 mm 4 mps 761 mmHg 59%
    17:00 +20°C° 0 mm 4 mps 761 mmHg 61%
    18:00 +20°C° 0 mm 4 mps 762 mmHg 63%
    19:00 +20°C° 0 mm 3 mps 762 mmHg 63%
    20:00 +20°C° 0 mm 3 mps 762 mmHg 64%
    21:00 +20°C° 0 mm 2 mps 762 mmHg 65%
    22:00 +20°C° 0 mm 2 mps 762 mmHg 65%
    23:00 +20°C° 0 mm 3 mps 761 mmHg 65%

    Tomorrow, 22 January, Wednesday

    Time Temperature Precipitation Wind Pressure Humidity
    00:00 +19°C° 0 mm 3 mps 761 mmHg 65%
    01:00 +19°C° 0 mm 4 mps 761 mmHg 65%
    02:00 +19°C° 0 mm 4 mps 760 mmHg 65%
    03:00 +19°C° 0 mm 5 mps 760 mmHg 65%
    04:00 +19°C° 0 mm 5 mps 760 mmHg 65%
    05:00 +19°C° 0 mm 5 mps 760 mmHg 65%
    06:00 +19°C° 0 mm 6 mps 760 mmHg 65%
    07:00 +19°C° 0 mm 6 mps 760 mmHg 65%
    08:00 +20°C° 0 mm 7 mps 761 mmHg 65%
    09:00 +20°C° 0 mm 7 mps 761 mmHg 65%
    10:00 +20°C° 0 mm 7 mps 761 mmHg 65%
    11:00 +20°C° 0 mm 7 mps 760 mmHg 66%
    12:00 +21°C° 0 mm 6 mps 760 mmHg 66%
    13:00 +21°C° 0 mm 6 mps 760 mmHg 63%
    14:00 +21°C° 0 mm 6 mps 759 mmHg 60%
    15:00 +22°C° 0 mm 5 mps 759 mmHg 57%
    16:00 +22°C° 0 mm 6 mps 759 mmHg 59%
    17:00 +22°C° 0 mm 6 mps 759 mmHg 60%
    18:00 +22°C° 0 mm 7 mps 760 mmHg 61%
    19:00 +21°C° 0 mm 7 mps 760 mmHg 64%
    20:00 +21°C° 0 mm 8 mps 760 mmHg 68%
    21:00 +19°C° 0 mm 9 mps 760 mmHg 71%
    22:00 +20°C° 0 mm 8 mps 760 mmHg 71%
    23:00 +20°C° 0 mm 6 mps 760 mmHg 72%

    Day after tomorrow, 23 January, Thursday

    Time Temperature Precipitation Wind Pressure Humidity
    00:00 +20°C° 0 mm 5 mps 760 mmHg 73%
    01:00 +20°C° 0 mm 5 mps 760 mmHg 72%
    02:00 +20°C° 0 mm 6 mps 759 mmHg 70%
    03:00 +20°C° 0 mm 6 mps 759 mmHg 69%
    04:00 +20°C° 0 mm 7 mps 760 mmHg 68%
    05:00 +18°C° 0 mm 8 mps 760 mmHg 67%
    06:00 +18°C° 0 mm 9 mps 761 mmHg 66%
    07:00 +17°C° 0.1 mm 9 mps 761 mmHg 70%
    08:00 +16°C° 0.1 mm 10 mps 762 mmHg 74%
    09:00 +13°C° 0.1 mm 10 mps 762 mmHg 78%
    10:00 +13°C° 0.7 mm 9 mps 762 mmHg 80%
    11:00 +13°C° 0.7 mm 9 mps 762 mmHg 82%
    12:00 +13°C° 0.7 mm 8 mps 762 mmHg 84%
    13:00 +12°C° 0.8 mm 8 mps 762 mmHg 82%
    14:00 +12°C° 0.8 mm 8 mps 762 mmHg 80%
    15:00 +12°C° 0.8 mm 7 mps 762 mmHg 78%
    16:00 +14°C° 0.4 mm 6 mps 762 mmHg 72%
    17:00 +15°C° 0.4 mm 6 mps 762 mmHg 66%
    18:00 +16°C° 0.4 mm 5 mps 763 mmHg 61%
    19:00 +16°C° 0.1 mm 5 mps 763 mmHg 59%
    20:00 +16°C° 0.1 mm 5 mps 763 mmHg 57%
    21:00 +17°C° 0.1 mm 5 mps 763 mmHg 56%
    22:00 +17°C° 0 mm 5 mps 763 mmHg 56%
    23:00 +17°C° 0 mm 6 mps 763 mmHg 55%

    24 January, Friday

    Time Temperature Precipitation Wind Pressure Humidity
    00:00 +17°C° 0 mm 6 mps 763 mmHg 55%
    01:00 +16°C° 0 mm 6 mps 763 mmHg 56%
    02:00 +16°C° 0 mm 6 mps 763 mmHg 56%
    03:00 +16°C° 0 mm 6 mps 762 mmHg 57%
    04:00 +16°C° 0 mm 6 mps 763 mmHg 58%
    05:00 +16°C° 0 mm 6 mps 763 mmHg 59%
    06:00 +16°C° 0 mm 6 mps 763 mmHg 60%
    07:00 +16°C° 0 mm 6 mps 764 mmHg 60%
    08:00 +16°C° 0 mm 5 mps 764 mmHg 60%
    09:00 +16°C° 0 mm 5 mps 764 mmHg 59%
    10:00 +16°C° 0 mm 5 mps 764 mmHg 60%
    11:00 +16°C° 0 mm 5 mps 764 mmHg 60%
    12:00 +16°C° 0 mm 5 mps 763 mmHg 61%
    13:00 +16°C° 0 mm 5 mps 763 mmHg 58%
    14:00 +18°C° 0 mm 4 mps 763 mmHg 56%
    15:00 +18°C° 0 mm 4 mps 762 mmHg 54%
    16:00 +18°C° 0 mm 3 mps 763 mmHg 54%
    17:00 +18°C° 0 mm 3 mps 763 mmHg 53%
    18:00 +18°C° 0 mm 3 mps 763 mmHg 53%
    19:00 +18°C° 0 mm 2 mps 763 mmHg 52%
    20:00 +18°C° 0 mm 2 mps 764 mmHg 52%
    21:00 +18°C° 0 mm 1 mps 764 mmHg 51%
    22:00 +18°C° 0 mm 1 mps 764 mmHg 50%
    23:00 +18°C° 0 mm 1 mps 764 mmHg 49%

    25 January, Saturday

    Time Temperature Precipitation Wind Pressure Humidity
    00:00 +18°C° 0 mm 1 mps 764 mmHg 47%
    01:00 +18°C° 0 mm 1 mps 764 mmHg 48%
    02:00 +17°C° 0 mm 2 mps 763 mmHg 48%
    03:00 +17°C° 0 mm 3 mps 763 mmHg 48%
    04:00 +17°C° 0 mm 3 mps 763 mmHg 48%
    05:00 +17°C° 0 mm 3 mps 763 mmHg 48%
    06:00 +17°C° 0 mm 3 mps 763 mmHg 48%
    07:00 +17°C° 0 mm 4 mps 764 mmHg 49%
    08:00 +17°C° 0 mm 5 mps 765 mmHg 49%
    09:00 +17°C° 0 mm 5 mps 765 mmHg 49%
    10:00 +17°C° 0 mm 6 mps 765 mmHg 49%
    11:00 +17°C° 0 mm 7 mps 765 mmHg 49%
    12:00 +16°C° 0 mm 8 mps 765 mmHg 49%
    13:00 +16°C° 0 mm 9 mps 765 mmHg 56%
    14:00 +16°C° 0 mm 10 mps 765 mmHg 63%
    15:00 +16°C° 0 mm 11 mps 765 mmHg 70%
    16:00 +16°C° 0 mm 11 mps 765 mmHg 66%
    17:00 +14°C° 0 mm 11 mps 765 mmHg 62%
    18:00 +14°C° 0 mm 10 mps 766 mmHg 58%
    19:00 +14°C° 0 mm 10 mps 766 mmHg 55%
    20:00 +13°C° 0 mm 10 mps 767 mmHg 52%
    21:00 +13°C° 0 mm 9 mps 767 mmHg 49%
    22:00 +13°C° 0 mm 10 mps 767 mmHg 48%
    23:00 +13°C° 0 mm 10 mps 767 mmHg 47%

    26 January, Sunday

    Time Temperature Precipitation Wind Pressure Humidity
    00:00 +12°C° 0 mm 11 mps 767 mmHg 46%
    01:00 +12°C° 0 mm 11 mps 767 mmHg 47%
    02:00 +12°C° 0 mm 11 mps 767 mmHg 47%
    03:00 +11°C° 0 mm 11 mps 766 mmHg 47%
    04:00 +11°C° 0 mm 11 mps 767 mmHg 49%
    05:00 +11°C° 0 mm 11 mps 767 mmHg 50%
    06:00 +11°C° 0 mm 11 mps 767 mmHg 51%
    07:00 +11°C° 0 mm 11 mps 767 mmHg 52%
    08:00 +9°C° 0 mm 11 mps 768 mmHg 54%
    09:00 +9°C° 0 mm 11 mps 768 mmHg 55%
    10:00 +10°C° 0 mm 12 mps 768 mmHg 57%
    11:00 +10°C° 0 mm 12 mps 768 mmHg 60%
    12:00 +10°C° 0 mm 12 mps 767 mmHg 62%
    13:00 +12°C° 0 mm 12 mps 767 mmHg 61%
    14:00 +12°C° 0 mm 13 mps 767 mmHg 60%
    15:00 +12°C° 0 mm 13 mps 766 mmHg 59%
    16:00 +12°C° 0 mm 13 mps 767 mmHg 59%
    17:00 +13°C° 0 mm 13 mps 767 mmHg 59%
    18:00 +13°C° 0 mm 12 mps 767 mmHg 59%
    19:00 +13°C° 0 mm 12 mps 767 mmHg 60%
    20:00 +13°C° 0 mm 12 mps 767 mmHg 60%
    21:00 +14°C° 0 mm 12 mps 767 mmHg 60%
    22:00 +14°C° 0 mm 12 mps 767 mmHg 60%
    23:00 +14°C° 0 mm 12 mps 766 mmHg 60%
    Show more